Time,TemperatureF,DewpointF,PressureIn,WindDirection,WindDirectionDegrees,WindSpeedMPH,WindSpeedGustMPH,Humidity,HourlyPrecipIn,Conditions,Clouds,dailyrainin,SoftwareType,DateUTC
2013-02-09 00:09:00,52.6,51.0,30.09,NW,320,1.0,4.0,93,0.00,,,0.00,weatherlink.com 1.10,2013-02-09 05:09:00,
2013-02-09 00:24:00,52.4,51.0,30.09,WNW,300,0.0,5.0,93,0.00,,,0.00,weatherlink.com 1.10,2013-02-09 05:24:00,
2013-02-09 00:39:00,51.6,50.0,30.09,WNW,300,0.0,3.0,93,0.00,,,0.00,weatherlink.com 1.10,2013-02-09 05:39:00,
2013-02-09 00:54:00,50.9,49.0,30.09,WNW,300,0.0,0.0,93,0.00,,,0.00,weatherlink.com 1.10,2013-02-09 05:54:00,
2013-02-09 01:09:00,50.3,48.0,30.09,WNW,300,0.0,1.0,93,0.00,,,0.00,weatherlink.com 1.10,2013-02-09 06:09:00,
2013-02-09 01:24:00,49.7,48.0,30.10,WNW,300,0.0,1.0,93,0.00,,,0.00,weatherlink.com 1.10,2013-02-09 06:24:00,
2013-02-09 01:39:00,49.3,47.0,30.10,WNW,300,0.0,0.0,93,0.00,,,0.00,weatherlink.com 1.10,2013-02-09 06:39:00,
2013-02-09 01:54:00,48.9,47.0,30.10,WNW,300,1.0,2.0,93,0.00,,,0.00,weatherlink.com 1.10,2013-02-09 06:54:00,
2013-02-09 02:09:00,49.0,47.0,30.10,WNW,300,0.0,1.0,94,0.00,,,0.00,weatherlink.com 1.10,2013-02-09 07:09:00,
2013-02-09 02:24:00,49.6,48.0,30.10,WNW,300,1.0,3.0,94,0.00,,,0.00,weatherlink.com 1.10,2013-02-09 07:24:00,
2013-02-09 02:39:00,50.0,48.0,30.10,WNW,300,2.0,4.0,94,0.00,,,0.00,weatherlink.com 1.10,2013-02-09 07:39:00,
2013-02-09 02:54:00,51.0,50.0,30.11,NW,310,2.0,8.0,95,0.00,,,0.00,weatherlink.com 1.10,2013-02-09 07:54:00,
2013-02-09 03:09:00,51.8,51.0,30.11,NW,320,5.0,9.0,95,0.00,,,0.00,weatherlink.com 1.10,2013-02-09 08:09:00,
2013-02-09 03:24:00,51.9,50.0,30.11,NNW,329,5.0,9.0,94,0.00,,,0.00,weatherlink.com 1.10,2013-02-09 08:24:00,
2013-02-09 03:39:00,51.6,50.0,30.11,NW,320,2.0,7.0,94,0.00,,,0.00,weatherlink.com 1.10,2013-02-09 08:39:00,
2013-02-09 03:54:00,51.2,50.0,30.11,North,355,2.0,7.0,94,0.00,,,0.00,weatherlink.com 1.10,2013-02-09 08:54:00,
2013-02-09 04:09:00,51.0,49.0,30.11,NNW,339,5.0,6.0,94,0.00,,,0.00,weatherlink.com 1.10,2013-02-09 09:09:00,
2013-02-09 04:24:00,50.8,49.0,30.12,NNW,330,4.0,7.0,93,0.00,,,0.00,weatherlink.com 1.10,2013-02-09 09:24:00,
2013-02-09 04:39:00,50.4,49.0,30.12,NNW,340,2.0,7.0,93,0.00,,,0.00,weatherlink.com 1.10,2013-02-09 09:39:00,
2013-02-09 04:54:00,50.2,48.0,30.13,NW,326,5.0,7.0,93,0.00,,,0.00,weatherlink.com 1.10,2013-02-09 09:54:00,
2013-02-09 05:09:00,50.2,48.0,30.14,NNW,340,2.0,8.0,93,0.00,,,0.00,weatherlink.com 1.10,2013-02-09 10:09:00,
2013-02-09 05:24:00,50.2,48.0,30.14,NNW,329,3.0,6.0,93,0.00,,,0.00,weatherlink.com 1.10,2013-02-09 10:24:00,
2013-02-09 05:39:00,49.9,48.0,30.15,NNW,331,3.0,7.0,93,0.00,,,0.00,weatherlink.com 1.10,2013-02-09 10:39:00,
2013-02-09 05:54:00,49.3,47.0,30.16,North,355,3.0,8.0,93,0.00,,,0.00,weatherlink.com 1.10,2013-02-09 10:54:00,
2013-02-09 06:09:00,49.3,47.0,30.17,NNE,18,1.0,9.0,93,0.00,,,0.00,weatherlink.com 1.10,2013-02-09 11:09:00,
2013-02-09 06:24:00,49.2,47.0,30.18,NNW,329,2.0,8.0,93,0.00,,,0.00,weatherlink.com 1.10,2013-02-09 11:24:00,
2013-02-09 06:39:00,48.8,47.0,30.18,North,9,3.0,8.0,93,0.00,,,0.00,weatherlink.com 1.10,2013-02-09 11:39:00,
2013-02-09 06:54:00,48.2,46.0,30.19,North,5,3.0,7.0,93,0.00,,,0.00,weatherlink.com 1.10,2013-02-09 11:54:00,
2013-02-09 07:09:00,47.9,46.0,30.19,North,5,4.0,8.0,93,0.00,,,0.00,weatherlink.com 1.10,2013-02-09 12:09:00,
2013-02-09 07:24:00,47.6,46.0,30.19,North,5,1.0,7.0,93,0.01,,,0.01,weatherlink.com 1.10,2013-02-09 12:24:00,
2013-02-09 07:39:00,47.3,45.0,30.19,NNW,342,5.0,5.0,93,0.01,,,0.01,weatherlink.com 1.10,2013-02-09 12:39:00,
2013-02-09 07:55:00,47.7,46.0,30.20,North,5,0.0,5.0,94,0.01,,,0.01,weatherlink.com 1.10,2013-02-09 12:55:00,
2013-02-09 08:10:00,48.2,47.0,30.21,North,5,0.0,1.0,94,0.01,,,0.01,weatherlink.com 1.10,2013-02-09 13:10:00,
2013-02-09 08:25:00,50.6,49.0,30.21,North,5,0.0,2.0,95,0.00,,,0.01,weatherlink.com 1.10,2013-02-09 13:25:00,
2013-02-09 08:40:00,53.8,52.0,30.20,North,5,0.0,3.0,95,0.00,,,0.01,weatherlink.com 1.10,2013-02-09 13:40:00,
2013-02-09 08:55:00,56.7,54.0,30.21,NE,44,2.0,11.0,91,0.00,,,0.01,weatherlink.com 1.10,2013-02-09 13:55:00,
2013-02-09 09:10:00,59.2,54.0,30.21,NE,51,6.0,14.0,83,0.00,,,0.01,weatherlink.com 1.10,2013-02-09 14:10:00,
2013-02-09 09:25:00,60.6,54.0,30.22,NNE,32,6.0,13.0,80,0.00,,,0.01,weatherlink.com 1.10,2013-02-09 14:25:00,
2013-02-09 09:40:00,61.3,54.0,30.23,NNE,19,6.0,14.0,77,0.00,,,0.01,weatherlink.com 1.10,2013-02-09 14:40:00,
2013-02-09 09:55:00,62.4,54.0,30.23,ENE,57,7.0,13.0,74,0.00,,,0.01,weatherlink.com 1.10,2013-02-09 14:55:00,
2013-02-09 10:10:00,63.7,55.0,30.25,NNE,24,2.0,15.0,73,0.00,,,0.01,weatherlink.com 1.10,2013-02-09 15:10:00,
2013-02-09 10:25:00,64.3,55.0,30.25,East,88,6.0,13.0,71,0.00,,,0.01,weatherlink.com 1.10,2013-02-09 15:25:00,
2013-02-09 10:40:00,65.2,55.0,30.25,NE,41,6.0,14.0,70,0.00,,,0.01,weatherlink.com 1.10,2013-02-09 15:40:00,
2013-02-09 10:55:00,65.6,55.0,30.26,NE,34,5.0,13.0,68,0.00,,,0.01,weatherlink.com 1.10,2013-02-09 15:55:00,
2013-02-09 11:10:00,66.5,55.0,30.26,ENE,78,7.0,12.0,67,0.00,,,0.01,weatherlink.com 1.10,2013-02-09 16:10:00,
2013-02-09 11:25:00,67.1,55.0,30.26,NNE,30,12.0,12.0,66,0.00,,,0.01,weatherlink.com 1.10,2013-02-09 16:25:00,
2013-02-09 11:40:00,66.5,55.0,30.26,ENE,76,5.0,14.0,67,0.00,,,0.01,weatherlink.com 1.10,2013-02-09 16:40:00,
2013-02-09 11:55:00,66.9,56.0,30.26,NNE,33,6.0,13.0,67,0.00,,,0.01,weatherlink.com 1.10,2013-02-09 16:55:00,
2013-02-09 12:10:00,67.3,54.0,30.26,NE,42,10.0,14.0,63,0.00,,,0.01,weatherlink.com 1.10,2013-02-09 17:10:00,
2013-02-09 12:25:00,67.1,54.0,30.26,East,92,2.0,15.0,64,0.00,,,0.01,weatherlink.com 1.10,2013-02-09 17:25:00,
2013-02-09 12:40:00,67.1,55.0,30.25,NNE,21,11.0,14.0,66,0.00,,,0.01,weatherlink.com 1.10,2013-02-09 17:40:00,
2013-02-09 12:55:00,67.3,55.0,30.25,ENE,61,1.0,13.0,64,0.00,,,0.01,weatherlink.com 1.10,2013-02-09 17:55:00,
2013-02-09 13:10:00,67.0,54.0,30.24,NE,55,7.0,15.0,63,0.00,,,0.01,weatherlink.com 1.10,2013-02-09 18:10:00,
2013-02-09 13:25:00,66.9,53.0,30.23,NE,38,5.0,18.0,62,0.00,,,0.01,weatherlink.com 1.10,2013-02-09 18:25:00,
2013-02-09 13:40:00,67.5,54.0,30.23,North,5,5.0,15.0,62,0.00,,,0.01,weatherlink.com 1.10,2013-02-09 18:40:00,
2013-02-09 13:55:00,66.7,53.0,30.22,East,96,8.0,16.0,62,0.00,,,0.01,weatherlink.com 1.10,2013-02-09 18:55:00,
2013-02-09 14:10:00,66.3,52.0,30.22,NNE,24,9.0,14.0,61,0.00,,,0.01,weatherlink.com 1.10,2013-02-09 19:10:00,
2013-02-09 14:25:00,66.3,51.0,30.22,NNE,28,10.0,20.0,59,0.00,,,0.01,weatherlink.com 1.10,2013-02-09 19:25:00,
2013-02-09 14:40:00,66.2,51.0,30.23,NNE,30,8.0,16.0,58,0.00,,,0.01,weatherlink.com 1.10,2013-02-09 19:40:00,
2013-02-09 14:56:00,66.0,49.0,30.22,NW,323,4.0,15.0,54,0.00,,,0.01,weatherlink.com 1.10,2013-02-09 19:56:00,
2013-02-09 15:11:00,66.4,48.0,30.22,East,92,7.0,17.0,51,0.00,,,0.01,weatherlink.com 1.10,2013-02-09 20:11:00,
2013-02-09 15:26:00,66.3,48.0,30.22,NE,47,13.0,17.0,53,0.00,,,0.01,weatherlink.com 1.10,2013-02-09 20:26:00,
2013-02-09 15:41:00,65.8,49.0,30.22,East,91,2.0,15.0,54,0.00,,,0.01,weatherlink.com 1.10,2013-02-09 20:41:00,
2013-02-09 15:56:00,65.3,48.0,30.23,ENE,76,2.0,15.0,54,0.00,,,0.01,weatherlink.com 1.10,2013-02-09 20:56:00,
2013-02-09 16:11:00,64.4,48.0,30.23,East,93,6.0,16.0,56,0.00,,,0.01,weatherlink.com 1.10,2013-02-09 21:11:00,
2013-02-09 16:26:00,64.9,48.0,30.23,NE,55,7.0,13.0,54,0.00,,,0.01,weatherlink.com 1.10,2013-02-09 21:26:00,
2013-02-09 16:41:00,64.1,46.0,30.23,NNE,26,4.0,13.0,53,0.00,,,0.01,weatherlink.com 1.10,2013-02-09 21:41:00,
2013-02-09 16:56:00,63.9,46.0,30.24,ENE,59,7.0,13.0,53,0.00,,,0.01,weatherlink.com 1.10,2013-02-09 21:56:00,
2013-02-09 17:11:00,63.5,46.0,30.24,NE,56,3.0,10.0,53,0.00,,,0.01,weatherlink.com 1.10,2013-02-09 22:11:00,
2013-02-09 17:26:00,61.0,45.0,30.25,NE,47,0.0,10.0,56,0.00,,,0.01,weatherlink.com 1.10,2013-02-09 22:26:00,
2013-02-09 17:41:00,59.1,45.0,30.24,NE,43,2.0,8.0,61,0.00,,,0.01,weatherlink.com 1.10,2013-02-09 22:41:00,
2013-02-09 17:56:00,58.0,46.0,30.24,NE,49,4.0,10.0,64,0.00,,,0.01,weatherlink.com 1.10,2013-02-09 22:56:00,
2013-02-09 18:11:00,57.0,46.0,30.23,NE,52,1.0,6.0,67,0.00,,,0.01,weatherlink.com 1.10,2013-02-09 23:11:00,
2013-02-09 18:26:00,56.1,46.0,30.24,NE,39,1.0,6.0,70,0.00,,,0.01,weatherlink.com 1.10,2013-02-09 23:26:00,
2013-02-09 18:41:00,55.1,46.0,30.24,NE,44,0.0,4.0,72,0.00,,,0.01,weatherlink.com 1.10,2013-02-09 23:41:00,
2013-02-09 18:56:00,54.3,46.0,30.23,ENE,60,2.0,4.0,74,0.00,,,0.01,weatherlink.com 1.10,2013-02-09 23:56:00,
2013-02-09 19:11:00,53.9,46.0,30.23,NE,55,0.0,5.0,74,0.00,,,0.01,weatherlink.com 1.10,2013-02-10 00:11:00,
2013-02-09 19:26:00,53.7,46.0,30.23,East,79,2.0,4.0,75,0.00,,,0.01,weatherlink.com 1.10,2013-02-10 00:26:00,
2013-02-09 19:41:00,54.0,47.0,30.24,ENE,67,2.0,4.0,76,0.00,,,0.01,weatherlink.com 1.10,2013-02-10 00:41:00,
2013-02-09 19:56:00,53.9,47.0,30.24,ENE,59,0.0,5.0,77,0.00,,,0.01,weatherlink.com 1.10,2013-02-10 00:56:00,
2013-02-09 20:11:00,53.4,47.0,30.25,ENE,59,0.0,4.0,79,0.00,,,0.01,weatherlink.com 1.10,2013-02-10 01:11:00,
2013-02-09 20:26:00,53.4,48.0,30.25,East,82,1.0,4.0,81,0.00,,,0.01,weatherlink.com 1.10,2013-02-10 01:26:00,
2013-02-09 20:41:00,53.1,47.0,30.26,East,81,0.0,2.0,81,0.00,,,0.01,weatherlink.com 1.10,2013-02-10 01:41:00,
2013-02-09 20:56:00,52.5,48.0,30.26,ENE,68,1.0,4.0,83,0.00,,,0.01,weatherlink.com 1.10,2013-02-10 01:56:00,
2013-02-09 21:11:00,52.6,48.0,30.26,ENE,58,2.0,5.0,84,0.00,,,0.01,weatherlink.com 1.10,2013-02-10 02:11:00,
2013-02-09 21:26:00,53.0,48.0,30.27,ENE,58,1.0,3.0,84,0.00,,,0.01,weatherlink.com 1.10,2013-02-10 02:26:00,
2013-02-09 21:41:00,53.3,48.0,30.27,ENE,60,0.0,4.0,83,0.00,,,0.01,weatherlink.com 1.10,2013-02-10 02:41:00,
2013-02-09 21:56:00,54.2,49.0,30.27,NE,49,2.0,7.0,82,0.00,,,0.01,weatherlink.com 1.10,2013-02-10 02:56:00,
2013-02-09 22:11:00,54.9,49.0,30.27,NE,42,6.0,7.0,81,0.00,,,0.01,weatherlink.com 1.10,2013-02-10 03:11:00,
2013-02-09 22:26:00,55.9,50.0,30.27,NE,46,4.0,8.0,81,0.00,,,0.01,weatherlink.com 1.10,2013-02-10 03:26:00,
2013-02-09 22:41:00,56.4,51.0,30.27,ENE,77,0.0,9.0,81,0.00,,,0.01,weatherlink.com 1.10,2013-02-10 03:41:00,
2013-02-09 22:56:00,56.7,51.0,30.26,ENE,68,4.0,12.0,81,0.00,,,0.01,weatherlink.com 1.10,2013-02-10 03:56:00,
2013-02-09 23:11:00,57.2,51.0,30.26,East,89,3.0,8.0,80,0.00,,,0.01,weatherlink.com 1.10,2013-02-10 04:11:00,
2013-02-09 23:26:00,57.2,51.0,30.27,East,98,3.0,10.0,80,0.00,,,0.01,weatherlink.com 1.10,2013-02-10 04:26:00,
2013-02-09 23:41:00,57.3,51.0,30.26,ENE,71,1.0,9.0,80,0.00,,,0.01,weatherlink.com 1.10,2013-02-10 04:41:00,
2013-02-09 23:56:00,57.2,51.0,30.26,East,81,1.0,7.0,81,0.00,,,0.01,weatherlink.com 1.10,2013-02-10 04:56:00,